Voltar ao catálogo

CZ-6A DEB

AtivoPO
NORAD 55231·DEBRIS·🇨🇳 China

Lançado Nov 11, 2022 de Taiyuan Satellite Launch Center

Loading…

Próximas Passagens (próximas 24 horas)

TLE

AtualizadoSource: Space-Track

Época: Sep 11, 2026, 05:33 UTC

1 55231U 22151WY  26254.23164705  .00006652  00000-0  83768-3 0  9998
2 55231  98.6208 340.7059 0068682 313.8113  45.7430 14.80723784198420

Acompanhe CZ-6A DEB em tempo real com AllMySat

Download on the App Store